| time (UTC) | temp F | wind direction | speed MPH | gust MPH | rain 1hr in | rain 24hr in | rain mn in | humidity % | barometer mb |
| 20260505212929 | 51 | 350 | 1.0 | 2.0 | 0.00 | 0.04 | 0.04 | 83 | |
| 20260505212426 | 51 | 36 | 3.0 | 5.0 | 0.00 | 0.04 | 0.04 | 83 | |
| 20260505211922 | 51 | 5 | 2.0 | 3.0 | 0.00 | 0.04 | 0.04 | 83 | |
| 20260505211420 | 51 | 45 | 2.0 | 5.0 | 0.00 | 0.04 | 0.04 | 82 | |
| 20260505210916 | 51 | 60 | 4.0 | 6.0 | 0.00 | 0.04 | 0.04 | 81 | |
| 20260505210413 | 51 | 33 | 2.0 | 3.0 | 0.00 | 0.04 | 0.04 | 81 | |
| 20260505205910 | 51 | 78 | 5.0 | 8.0 | 0.00 | 0.04 | 0.04 | 82 | |
| 20260505205409 | 51 | 46 | 2.0 | 5.0 | 0.00 | 0.04 | 0.04 | 83 | |
| 20260505204905 | 51 | 34 | 3.0 | 6.0 | 0.00 | 0.04 | 0.04 | 83 | |
| 20260505204403 | 51 | 33 | 3.0 | 6.0 | 0.00 | 0.04 | 0.04 | 84 | |
| 20260505203900 | 51 | 236 | 1.0 | 5.0 | 0.00 | 0.04 | 0.04 | 84 | |
| 20260505203356 | 51 | 309 | 2.0 | 3.0 | 0.00 | 0.04 | 0.04 | 85 | |
| 20260505202852 | 51 | 24 | 0.0 | 2.0 | 0.00 | 0.04 | 0.04 | 85 | |
| 20260505202349 | 51 | 58 | 3.0 | 9.0 | 0.00 | 0.04 | 0.04 | 83 | |
| 20260505201846 | 51 | 359 | 1.0 | 7.0 | 0.07 | 0.04 | 0.04 | 84 | |
| 20260505201343 | 51 | 38 | 2.0 | 6.0 | 0.07 | 0.04 | 0.04 | 83 | |
| 20260505200841 | 52 | 0 | 2.0 | 3.0 | 0.07 | 0.03 | 0.03 | 82 | |
| 20260505200338 | 53 | 41 | 3.0 | 5.0 | 0.12 | 0.03 | 0.03 | 79 | |
| 20260505195833 | 53 | 5 | 1.0 | 5.0 | 0.05 | 0.02 | 0.02 | 77 | |
| 20260505195330 | 53 | 45 | 3.0 | 7.0 | 0.00 | 0.01 | 0.01 | 76 | |
| 20260505194827 | 54 | 29 | 3.0 | 5.0 | 0.00 | 0.01 | 0.01 | 75 | |
| 20260505194325 | 54 | 22 | 2.0 | 10.0 | 0.00 | 0.01 | 0.01 | 73 | |
| 20260505193820 | 54 | 55 | 3.0 | 5.0 | 0.07 | 0.01 | 0.01 | 74 | |
| 20260505193318 | 54 | 100 | 3.0 | 6.0 | 0.07 | 0.01 | 0.01 | 73 | |
| 20260505192816 | 55 | 1 | 1.0 | 8.0 | 0.00 | 0.00 | 0.00 | 69 | |
| 20260505192314 | 56 | 18 | 1.0 | 5.0 | 0.00 | 0.00 | 0.00 | 67 | |
| 20260505191811 | 57 | 20 | 0.0 | 5.0 | 0.00 | 0.00 | 0.00 | 63 | |
| 20260505191309 | 57 | 317 | 3.0 | 5.0 | 0.00 | 0.00 | 0.00 | 60 | |
| 20260505190806 | 57 | 46 | 3.0 | 8.0 | 0.00 | 0.00 | 0.00 | 59 | |
| 20260505190301 | 58 | 48 | 3.0 | 6.0 | 0.00 | 0.00 | 0.00 | 59 | |
| 20260505185757 | 58 | 24 | 4.0 | 7.0 | 0.00 | 0.00 | 0.00 | 59 | |
| 20260505185254 | 59 | 60 | 7.0 | 10.0 | 0.00 | 0.00 | 0.00 | 55 | |
| 20260505184750 | 59 | 18 | 2.0 | 9.0 | 0.00 | 0.00 | 0.00 | 54 | |
| 20260505184247 | 59 | 92 | 6.0 | 14.0 | 0.00 | 0.00 | 0.00 | 53 | |
| 20260505183744 | 59 | 66 | 6.0 | 8.0 | 0.00 | 0.00 | 0.00 | 53 | |
| 20260505183241 | 59 | 52 | 3.0 | 7.0 | 0.00 | 0.00 | 0.00 | 52 | |
| 20260505182738 | 59 | 35 | 7.0 | 13.0 | 0.00 | 0.00 | 0.00 | 52 | |
| 20260505182235 | 59 | 330 | 2.0 | 6.0 | 0.00 | 0.00 | 0.00 | 53 | |
| 20260505181731 | 60 | 104 | 8.0 | 11.0 | 0.00 | 0.00 | 0.00 | 52 | |
| 20260505181229 | 60 | 322 | 6.0 | 17.0 | 0.00 | 0.00 | 0.00 | 53 | |
| 20260505180725 | 60 | 226 | 2.0 | 9.0 | 0.00 | 0.00 | 0.00 | 53 | |
| 20260505180222 | 60 | 284 | 3.0 | 6.0 | 0.00 | 0.00 | 0.00 | 53 | |
| 20260505175718 | 60 | 48 | 4.0 | 9.0 | 0.00 | 0.00 | 0.00 | 53 | |
| 20260505175215 | 60 | 47 | 3.0 | 13.0 | 0.00 | 0.00 | 0.00 | 54 | |
| 20260505174711 | 61 | 166 | 1.0 | 15.0 | 0.00 | 0.00 | 0.00 | 53 | |
| 20260505174208 | 62 | 337 | 9.0 | 18.0 | 0.00 | 0.00 | 0.00 | 52 | |
| 20260505173704 | 62 | 63 | 2.0 | 8.0 | 0.00 | 0.00 | 0.00 | 54 | |
| 20260505173201 | 62 | 345 | 2.0 | 7.0 | 0.00 | 0.00 | 0.00 | 54 | |
| 20260505172658 | 62 | 337 | 5.0 | 6.0 | 0.00 | 0.00 | 0.00 | 55 | |
| 20260505172155 | 61 | 86 | 1.0 | 8.0 | 0.00 | 0.00 | 0.00 | 57 | |
| 20260505171654 | 60 | 342 | 1.0 | 8.0 | 0.00 | 0.00 | 0.00 | 57 | |
| 20260505171152 | 61 | 65 | 6.0 | 8.0 | 0.00 | 0.00 | 0.00 | 57 | |
| 20260505170649 | 61 | 217 | 2.0 | 9.0 | 0.00 | 0.00 | 0.00 | 59 | |
| 20260505170146 | 61 | 51 | 3.0 | 11.0 | 0.00 | 0.00 | 0.00 | 58 | |
| 20260505165646 | 61 | 208 | 3.0 | 5.0 | 0.00 | 0.00 | 0.00 | 59 | |
| 20260505165142 | 60 | 105 | 6.0 | 11.0 | 0.00 | 0.00 | 0.00 | 59 | |
| 20260505164638 | 61 | 76 | 8.0 | 11.0 | 0.00 | 0.00 | 0.00 | 59 | |
| 20260505164136 | 61 | 177 | 5.0 | 10.0 | 0.00 | 0.00 | 0.00 | 60 | |
| 20260505163634 | 62 | 116 | 3.0 | 6.0 | 0.00 | 0.00 | 0.00 | 60 | |
| 20260505163131 | 62 | 333 | 0.0 | 6.0 | 0.00 | 0.00 | 0.00 | 60 | |
| 20260505162628 | 62 | 330 | 0.0 | 3.0 | 0.00 | 0.00 | 0.00 | 61 | |
| 20260505162126 | 61 | 65 | 5.0 | 6.0 | 0.00 | 0.00 | 0.00 | 62 | |
| 20260505161623 | 60 | 8 | 6.0 | 14.0 | 0.00 | 0.00 | 0.00 | 63 | |
| 20260505161120 | 60 | 74 | 3.0 | 10.0 | 0.00 | 0.00 | 0.00 | 66 | |
| 20260505160618 | 60 | 315 | 5.0 | 8.0 | 0.00 | 0.00 | 0.00 | 66 | |
| 20260505160115 | 60 | 43 | 4.0 | 6.0 | 0.00 | 0.00 | 0.00 | 67 | |
| 20260505153055 | 60 | 38 | 4.0 | 8.0 | 0.00 | 0.00 | 0.00 | 69 | |
| 20260505152551 | 60 | 229 | 3.0 | 5.0 | 0.00 | 0.00 | 0.00 | 70 | |
| 20260505152047 | 59 | 19 | 3.0 | 7.0 | 0.00 | 0.00 | 0.00 | 72 | |
| 20260505151542 | 59 | 51 | 5.0 | 8.0 | 0.00 | 0.00 | 0.00 | 73 | |
| 20260505151040 | 59 | 322 | 2.0 | 8.0 | 0.00 | 0.00 | 0.00 | 75 | |
| 20260505150536 | 59 | 24 | 5.0 | 11.0 | 0.00 | 0.00 | 0.00 | 75 | |
| 20260505140501 | 61 | 77 | 3.0 | 6.0 | 0.00 | 0.00 | 0.00 | 76 | |
| 20260505124915 | 61 | 126 | 2.0 | 5.0 | 0.00 | 0.00 | 0.00 | 77 | |
| 20260505124412 | 61 | 56 | 1.0 | 6.0 | 0.00 | 0.00 | 0.00 | 77 | |
| 20260505123908 | 61 | 259 | 5.0 | 8.0 | 0.00 | 0.00 | 0.00 | 77 | |
| 20260505123404 | 61 | 39 | 1.0 | 3.0 | 0.00 | 0.00 | 0.00 | 77 | |
| 20260505122900 | 61 | 330 | 0.0 | 7.0 | 0.00 | 0.00 | 0.00 | 77 | |
| 20260505122358 | 61 | 15 | 0.0 | 5.0 | 0.00 | 0.00 | 0.00 | 77 | |
| 20260505121854 | 60 | 25 | 3.0 | 6.0 | 0.00 | 0.00 | 0.00 | 77 | |
| 20260505121351 | 60 | 254 | 1.0 | 5.0 | 0.00 | 0.00 | 0.00 | 77 | |
| 20260505120847 | 60 | 56 | 0.0 | 6.0 | 0.00 | 0.00 | 0.00 | 77 | |
| 20260505120343 | 60 | 88 | 2.0 | 5.0 | 0.00 | 0.00 | 0.00 | 77 | |
| 20260505115842 | 60 | 7 | 0.0 | 3.0 | 0.00 | 0.00 | 0.00 | 77 | |
| 20260505115340 | 60 | 280 | 1.0 | 5.0 | 0.00 | 0.00 | 0.00 | 77 | |
| 20260505114838 | 60 | 357 | 3.0 | 5.0 | 0.00 | 0.00 | 0.00 | 77 | |
| 20260505114334 | 60 | 138 | 2.0 | 5.0 | 0.00 | 0.00 | 0.00 | 77 | |
| 20260505113830 | 60 | 148 | 3.0 | 5.0 | 0.00 | 0.00 | 0.00 | 77 | |
| 20260505113327 | 60 | 190 | 4.0 | 6.0 | 0.00 | 0.00 | 0.00 | 77 | |
| 20260505112823 | 60 | 99 | 2.0 | 3.0 | 0.00 | 0.00 | 0.00 | 77 | |
| 20260505112320 | 60 | 157 | 2.0 | 8.0 | 0.00 | 0.00 | 0.00 | 77 | |
| 20260505111816 | 60 | 85 | 0.0 | 7.0 | 0.00 | 0.00 | 0.00 | 77 | |
| 20260505111311 | 60 | 255 | 1.0 | 2.0 | 0.00 | 0.00 | 0.00 | 77 | |
| 20260505110807 | 60 | 329 | 1.0 | 7.0 | 0.00 | 0.00 | 0.00 | 77 | |
| 20260505110305 | 60 | 265 | 2.0 | 6.0 | 0.00 | 0.00 | 0.00 | 77 | |
| 20260505101739 | 60 | 31 | 2.0 | 6.0 | 0.00 | 0.00 | 0.00 | 76 | |
| 20260505101235 | 60 | 13 | 1.0 | 5.0 | 0.00 | 0.00 | 0.00 | 76 | |
| 20260505100732 | 60 | 140 | 1.0 | 8.0 | 0.00 | 0.00 | 0.00 | 76 | |
| 20260505100229 | 60 | 332 | 2.0 | 8.0 | 0.00 | 0.00 | 0.00 | 77 | |
| 20260505095724 | 60 | 294 | 2.0 | 7.0 | 0.00 | 0.00 | 0.00 | 77 | |
| 20260505095222 | 60 | 323 | 0.0 | 5.0 | 0.00 | 0.00 | 0.00 | 77 | |
| 20260505094718 | 60 | 182 | 1.0 | 3.0 | 0.00 | 0.00 | 0.00 | 77 | |
| 20260505094214 | 60 | 253 | 3.0 | 7.0 | 0.00 | 0.00 | 0.00 | 77 | |
| 20260505093711 | 60 | 2 | 3.0 | 3.0 | 0.00 | 0.00 | 0.00 | 77 | |
| 20260505093208 | 60 | 288 | 1.0 | 6.0 | 0.00 | 0.00 | 0.00 | 77 | |
| 20260505092704 | 60 | 272 | 2.0 | 3.0 | 0.00 | 0.00 | 0.00 | 77 | |
| 20260505092204 | 60 | 240 | 1.0 | 2.0 | 0.00 | 0.00 | 0.00 | 77 | |
| 20260505091700 | 60 | 216 | 4.0 | 8.0 | 0.00 | 0.00 | 0.00 | 76 | |
| 20260505091158 | 60 | 356 | 3.0 | 6.0 | 0.00 | 0.00 | 0.00 | 76 | |
| 20260505090655 | 61 | 135 | 1.0 | 10.0 | 0.00 | 0.00 | 0.00 | 76 | |
| 20260505090154 | 61 | 244 | 1.0 | 5.0 | 0.00 | 0.00 | 0.00 | 75 | |
| 20260505085651 | 61 | 158 | 2.0 | 6.0 | 0.00 | 0.00 | 0.00 | 75 | |
| 20260505085149 | 61 | 33 | 1.0 | 5.0 | 0.00 | 0.00 | 0.00 | 75 | |
| 20260505084646 | 61 | 31 | 0.0 | 3.0 | 0.00 | 0.00 | 0.00 | 74 | |
| 20260505084145 | 61 | 300 | 0.0 | 5.0 | 0.00 | 0.00 | 0.00 | 74 | |
| 20260505083642 | 61 | 89 | 0.0 | 1.0 | 0.00 | 0.00 | 0.00 | 74 | |
| 20260505083138 | 61 | 288 | 2.0 | 5.0 | 0.00 | 0.00 | 0.00 | 74 | |
| 20260505082634 | 61 | 300 | 2.0 | 6.0 | 0.00 | 0.00 | 0.00 | 74 | |
| 20260505082131 | 61 | 303 | 3.0 | 7.0 | 0.00 | 0.00 | 0.00 | 75 | |
| 20260505081627 | 61 | 258 | 2.0 | 5.0 | 0.00 | 0.00 | 0.00 | 75 | |
| 20260505081125 | 61 | 162 | 2.0 | 3.0 | 0.00 | 0.00 | 0.00 | 75 | |
| 20260505080621 | 61 | 175 | 2.0 | 5.0 | 0.00 | 0.00 | 0.00 | 75 | |
| 20260505080117 | 61 | 100 | 2.0 | 8.0 | 0.00 | 0.00 | 0.00 | 75 | |
| 20260505075614 | 61 | 237 | 2.0 | 5.0 | 0.00 | 0.00 | 0.00 | 75 | |
| 20260505075111 | 62 | 0 | 0.0 | 5.0 | 0.00 | 0.00 | 0.00 | 74 | |
| 20260505074608 | 62 | 224 | 3.0 | 8.0 | 0.00 | 0.00 | 0.00 | 74 | |
| 20260505074105 | 62 | 270 | 1.0 | 3.0 | 0.00 | 0.00 | 0.00 | 74 | |
| 20260505073602 | 62 | 245 | 5.0 | 9.0 | 0.00 | 0.00 | 0.00 | 74 | |
| 20260505073101 | 62 | 160 | 2.0 | 9.0 | 0.00 | 0.00 | 0.00 | 74 | |
| 20260505072556 | 62 | 12 | 2.0 | 10.0 | 0.00 | 0.00 | 0.00 | 73 | |
| 20260505072053 | 62 | 330 | 7.0 | 11.0 | 0.00 | 0.00 | 0.00 | 73 | |
| 20260505071548 | 62 | 250 | 8.0 | 11.0 | 0.00 | 0.00 | 0.00 | 73 | |
| 20260505071046 | 62 | 357 | 5.0 | 8.0 | 0.00 | 0.00 | 0.00 | 73 | |
| 20260505070543 | 62 | 200 | 4.0 | 6.0 | 0.00 | 0.00 | 0.00 | 73 | |
| 20260505070039 | 62 | 308 | 5.0 | 8.0 | 0.00 | 0.00 | 0.00 | 72 | |
| 20260505065535 | 62 | 138 | 2.0 | 6.0 | 0.00 | 0.00 | 0.00 | 73 | |
| 20260505065032 | 62 | 235 | 2.0 | 8.0 | 0.00 | 0.00 | 0.00 | 73 | |
| 20260505064529 | 62 | 199 | 4.0 | 10.0 | 0.00 | 0.00 | 0.00 | 72 | |
| 20260505064027 | 62 | 298 | 3.0 | 6.0 | 0.00 | 0.00 | 0.00 | 73 | |
| 20260505063524 | 62 | 281 | 3.0 | 5.0 | 0.00 | 0.00 | 0.00 | 72 | |
| 20260505063020 | 62 | 255 | 5.0 | 7.0 | 0.00 | 0.00 | 0.00 | 73 | |
| 20260505062517 | 62 | 182 | 3.0 | 8.0 | 0.00 | 0.00 | 0.00 | 72 | |
| 20260505062014 | 62 | 276 | 2.0 | 7.0 | 0.00 | 0.00 | 0.00 | 72 | |
| 20260505061512 | 62 | 285 | 3.0 | 15.0 | 0.00 | 0.00 | 0.00 | 72 | |
| 20260505061009 | 62 | 25 | 2.0 | 8.0 | 0.00 | 0.00 | 0.00 | 72 | |
| 20260505060507 | 62 | 125 | 2.0 | 7.0 | 0.00 | 0.00 | 0.00 | 72 | |
| 20260505060003 | 62 | 247 | 5.0 | 9.0 | 0.00 | 0.00 | 0.00 | 72 | |
| 20260505055458 | 62 | 223 | 1.0 | 9.0 | 0.00 | 0.00 | 0.00 | 72 | |
| 20260505054955 | 62 | 238 | 5.0 | 8.0 | 0.00 | 0.00 | 0.00 | 72 | |
| 20260505054453 | 62 | 202 | 2.0 | 5.0 | 0.00 | 0.00 | 0.00 | 72 | |
| 20260505053950 | 62 | 298 | 4.0 | 11.0 | 0.00 | 0.00 | 0.00 | 71 | |
| 20260505053447 | 62 | 40 | 2.0 | 6.0 | 0.00 | 0.00 | 0.00 | 71 | |
| 20260505052944 | 62 | 275 | 2.0 | 8.0 | 0.00 | 0.00 | 0.00 | 71 | |
| 20260505052442 | 62 | 229 | 2.0 | 7.0 | 0.00 | 0.00 | 0.00 | 70 | |
| 20260505051938 | 62 | 353 | 3.0 | 6.0 | 0.00 | 0.00 | 0.00 | 69 | |
| 20260505051435 | 62 | 102 | 3.0 | 7.0 | 0.00 | 0.00 | 0.00 | 69 | |
| 20260505050933 | 62 | 281 | 5.0 | 8.0 | 0.00 | 0.00 | 0.00 | 68 | |
| 20260505050432 | 62 | 256 | 3.0 | 7.0 | 0.00 | 0.00 | 0.00 | 69 | |
| 20260505041359 | 63 | 253 | 3.0 | 7.0 | 0.00 | 0.00 | 0.00 | 69 | |
| 20260505040856 | 63 | 283 | 3.0 | 6.0 | 0.00 | 0.00 | 0.00 | 69 | |
| 20260505040354 | 64 | 102 | 0.0 | 11.0 | 0.00 | 0.00 | 0.00 | 69 | |
| 20260505035850 | 64 | 213 | 3.0 | 7.0 | 0.00 | 0.00 | 0.00 | 68 | |
| 20260505035346 | 64 | 140 | 4.0 | 6.0 | 0.00 | 0.00 | 0.00 | 68 | |
| 20260505034844 | 64 | 290 | 1.0 | 15.0 | 0.00 | 0.00 | 0.00 | 67 | |
| 20260505034340 | 64 | 231 | 3.0 | 8.0 | 0.00 | 0.00 | 0.00 | 67 | |
| 20260505033837 | 64 | 172 | 3.0 | 6.0 | 0.00 | 0.00 | 0.00 | 67 | |
| 20260505033334 | 64 | 289 | 5.0 | 8.0 | 0.00 | 0.00 | 0.00 | 66 | |
| 20260505032832 | 64 | 243 | 5.0 | 9.0 | 0.00 | 0.00 | 0.00 | 66 | |
| 20260505032328 | 64 | 304 | 3.0 | 10.0 | 0.00 | 0.00 | 0.00 | 66 | |
| 20260505031826 | 64 | 229 | 3.0 | 10.0 | 0.00 | 0.00 | 0.00 | 65 | |
| 20260505031322 | 64 | 301 | 5.0 | 8.0 | 0.00 | 0.00 | 0.00 | 65 | |
| 20260505030819 | 64 | 316 | 2.0 | 7.0 | 0.00 | 0.00 | 0.00 | 64 | |
| 20260505030315 | 64 | 286 | 5.0 | 8.0 | 0.00 | 0.00 | 0.00 | 64 | |
| 20260505025811 | 64 | 157 | 3.0 | 5.0 | 0.00 | 0.00 | 0.00 | 63 | |
| 20260505025309 | 64 | 199 | 3.0 | 5.0 | 0.00 | 0.00 | 0.00 | 63 | |
| 20260505024807 | 65 | 169 | 1.0 | 10.0 | 0.00 | 0.00 | 0.00 | 62 | |
| 20260505024304 | 65 | 307 | 2.0 | 7.0 | 0.00 | 0.00 | 0.00 | 61 | |
| 20260505023801 | 65 | 283 | 2.0 | 5.0 | 0.00 | 0.00 | 0.00 | 60 | |
| 20260505023258 | 65 | 267 | 3.0 | 6.0 | 0.00 | 0.00 | 0.00 | 60 | |
| 20260505022755 | 65 | 261 | 3.0 | 7.0 | 0.00 | 0.00 | 0.00 | 59 | |
| 20260505022252 | 65 | 182 | 5.0 | 7.0 | 0.00 | 0.00 | 0.00 | 58 | |
| 20260505021749 | 64 | 313 | 1.0 | 3.0 | 0.00 | 0.00 | 0.00 | 58 | |
| 20260505021246 | 64 | 324 | 1.0 | 3.0 | 0.00 | 0.00 | 0.00 | 57 | |
| 20260505020742 | 65 | 351 | 2.0 | 2.0 | 0.00 | 0.00 | 0.00 | 56 | |
| 20260505020237 | 65 | 308 | 1.0 | 6.0 | 0.00 | 0.00 | 0.00 | 56 | |
| 20260505015735 | 65 | 344 | 0.0 | 3.0 | 0.00 | 0.00 | 0.00 | 55 | |
| 20260505015232 | 64 | 252 | 3.0 | 5.0 | 0.00 | 0.00 | 0.00 | 55 | |
| 20260505014729 | 64 | 266 | 0.0 | 5.0 | 0.00 | 0.00 | 0.00 | 54 | |
| 20260505014226 | 65 | 305 | 2.0 | 2.0 | 0.00 | 0.00 | 0.00 | 53 | |
| 20260505013722 | 65 | 234 | 1.0 | 2.0 | 0.00 | 0.00 | 0.00 | 53 | |
| 20260505013220 | 65 | 291 | 1.0 | 3.0 | 0.00 | 0.00 | 0.00 | 52 | |
| 20260505012718 | 65 | 279 | 2.0 | 2.0 | 0.00 | 0.00 | 0.00 | 51 | |
| 20260505012215 | 65 | 192 | 0.0 | 3.0 | 0.00 | 0.00 | 0.00 | 51 | |
| 20260505011710 | 65 | 277 | 2.0 | 5.0 | 0.00 | 0.00 | 0.00 | 50 | |
| 20260505011208 | 66 | 265 | 3.0 | 3.0 | 0.00 | 0.00 | 0.00 | 49 | |
| 20260505010703 | 65 | 249 | 2.0 | 5.0 | 0.00 | 0.00 | 0.00 | 49 | |
| 20260505010200 | 65 | 324 | 0.0 | 3.0 | 0.00 | 0.00 | 0.00 | 49 | |
| 20260505005656 | 66 | 65 | 0.0 | 3.0 | 0.00 | 0.00 | 0.00 | 48 | |
| 20260505005154 | 66 | 342 | 1.0 | 3.0 | 0.00 | 0.00 | 0.00 | 47 | |
| 20260505004650 | 66 | 162 | 2.0 | 5.0 | 0.00 | 0.00 | 0.00 | 47 | |
| 20260505004147 | 66 | 182 | 0.0 | 2.0 | 0.00 | 0.00 | 0.00 | 46 | |
| 20260505003644 | 67 | 5 | 0.0 | 8.0 | 0.00 | 0.00 | 0.00 | 45 | |
| 20260505003142 | 67 | 312 | 5.0 | 7.0 | 0.00 | 0.00 | 0.00 | 44 | |
| 20260505002638 | 67 | 260 | 2.0 | 6.0 | 0.00 | 0.00 | 0.00 | 44 | |
| 20260505002136 | 68 | 201 | 4.0 | 6.0 | 0.00 | 0.00 | 0.00 | 43 | |
| 20260505001633 | 68 | 238 | 5.0 | 8.0 | 0.00 | 0.00 | 0.00 | 42 | |
| 20260505001130 | 68 | 33 | 2.0 | 5.0 | 0.00 | 0.00 | 0.00 | 42 | |
| 20260505000627 | 68 | 165 | 2.0 | 9.0 | 0.00 | 0.00 | 0.00 | 41 | |
| 20260505000125 | 68 | 344 | 3.0 | 8.0 | 0.00 | 0.00 | 0.00 | 41 | |
| 20260504235621 | 68 | 212 | 5.0 | 7.0 | 0.00 | 0.00 | 0.00 | 41 | |
| 20260504235118 | 69 | 4 | 0.0 | 6.0 | 0.00 | 0.00 | 0.00 | 41 | |
| 20260504234615 | 69 | 104 | 1.0 | 7.0 | 0.00 | 0.00 | 0.00 | 40 | |
| 20260504234112 | 69 | 257 | 6.0 | 10.0 | 0.00 | 0.00 | 0.00 | 40 | |
| 20260504233608 | 69 | 162 | 2.0 | 8.0 | 0.00 | 0.00 | 0.00 | 40 | |
| 20260504233104 | 69 | 232 | 1.0 | 11.0 | 0.00 | 0.00 | 0.00 | 40 | |
| 20260504232602 | 69 | 187 | 3.0 | 7.0 | 0.00 | 0.00 | 0.00 | 40 | |
| 20260504232059 | 69 | 274 | 9.0 | 16.0 | 0.00 | 0.00 | 0.00 | 39 | |
| 20260504231555 | 70 | 169 | 2.0 | 8.0 | 0.00 | 0.00 | 0.00 | 40 | |
| 20260504231051 | 70 | 214 | 6.0 | 14.0 | 0.00 | 0.00 | 0.00 | 38 | |
| 20260504230547 | 71 | 279 | 7.0 | 11.0 | 0.00 | 0.00 | 0.00 | 38 | |
| 20260504230047 | 71 | 155 | 3.0 | 7.0 | 0.00 | 0.00 | 0.00 | 39 | |
| 20260504225544 | 71 | 141 | 1.0 | 9.0 | 0.00 | 0.00 | 0.00 | 39 | |
| 20260504225041 | 71 | 186 | 7.0 | 11.0 | 0.00 | 0.00 | 0.00 | 38 | |
| 20260504224537 | 71 | 187 | 6.0 | 11.0 | 0.00 | 0.00 | 0.00 | 38 | |
| 20260504224035 | 71 | 257 | 1.0 | 3.0 | 0.00 | 0.00 | 0.00 | 39 | |
| 20260504223531 | 70 | 31 | 3.0 | 15.0 | 0.00 | 0.00 | 0.00 | 39 | |
| 20260504223027 | 71 | 183 | 3.0 | 8.0 | 0.00 | 0.00 | 0.00 | 40 | |
| 20260504222524 | 70 | 144 | 3.0 | 9.0 | 0.00 | 0.00 | 0.00 | 39 | |
| 20260504222021 | 71 | 268 | 2.0 | 11.0 | 0.00 | 0.00 | 0.00 | 39 | |
| 20260504221519 | 71 | 104 | 4.0 | 7.0 | 0.00 | 0.00 | 0.00 | 39 | |
| 20260504221015 | 72 | 6 | 7.0 | 13.0 | 0.00 | 0.00 | 0.00 | 39 | |
| 20260504220512 | 72 | 241 | 5.0 | 8.0 | 0.00 | 0.00 | 0.00 | 38 | |
| 20260504220009 | 73 | 89 | 2.0 | 11.0 | 0.00 | 0.00 | 0.00 | 38 | |
| 20260504215505 | 72 | 278 | 4.0 | 11.0 | 0.00 | 0.00 | 0.00 | 39 | |
| 20260504215003 | 72 | 59 | 7.0 | 13.0 | 0.00 | 0.00 | 0.00 | 38 | |
| 20260504214458 | 72 | 151 | 5.0 | 14.0 | 0.00 | 0.00 | 0.00 | 39 | |
| 20260504213955 | 71 | 179 | 5.0 | 9.0 | 0.00 | 0.00 | 0.00 | 40 | |
| 20260504213451 | 71 | 213 | 3.0 | 10.0 | 0.00 | 0.00 | 0.00 | 41 |